Stations météo

réclame
Mon MeteoGroup
Semmerzake, Belgique (6428): Température de l'air & dewpoint: 20.10.2020 22:00:00 - 26.10.2020 22:00:00 (CET)Semmerzake, Belgique (6428): Vitesse du vent & gusts: 20.10.2020 22:00:00 - 26.10.2020 22:00:00 (CET)Semmerzake, Belgique (6428): Direction du vent: 20.10.2020 22:00:00 - 26.10.2020 22:00:00 (CET)Semmerzake, Belgique (6428): reduced air pressure: 20.10.2020 22:00:00 - 26.10.2020 22:00:00 (CET)Semmerzake, Belgique (6428): visibility: 20.10.2020 22:00:00 - 26.10.2020 22:00:00 (CET)
Date & Time tt [°C] td [°C] ff [km/h] ff [knt] fx [km/h] fx [knt] dd ppp [hPa] vv [km]
26.10.2020 22:00:00 9,2 6,9 14 8 - - SSW 1002,5 20
26.10.2020 21:00:00 9,5 6,8 18 10 29 16 SSW 1001,8 20
26.10.2020 20:00:00 10,3 6,8 18 10 32 18 SSW 1001,5 20
26.10.2020 19:00:00 11,2 6,9 22 12 - - SSW 1001,3 20
26.10.2020 18:00:00 10,9 6,7 18 10 36 19 SSW 1000,8 20
26.10.2020 17:00:00 11,8 6,5 22 12 36 19 SSW 1000,7 20
26.10.2020 16:00:00 12,2 6,6 14 8 - - SW 1000,6 20
26.10.2020 15:00:00 12,1 6,9 18 10 36 19 SSW 1000,2 20
26.10.2020 14:00:00 12,1 6,6 25 14 43 23 SW 1000,2 20
26.10.2020 13:00:00 12,1 7,0 25 14 - - SSW 1000,3 17
26.10.2020 12:00:00 11,4 6,9 25 14 40 21 SSW 1000,2 20
26.10.2020 11:00:00 - - - - - - - - -
26.10.2020 10:00:00 9,1 6,5 25 14 - - SSW 1001,1 20
26.10.2020 09:00:00 8,8 6,5 22 12 32 18 SSW 1000,8 20
26.10.2020 08:00:00 8,1 6,1 18 10 32 18 S 1000,7 20
26.10.2020 07:00:00 8,3 6,4 25 14 - - SSW 1000,2 20
26.10.2020 06:00:00 8,3 6,5 22 12 32 18 SSW 999,7 20
26.10.2020 05:00:00 8,3 7,0 18 10 29 16 SSW 999,5 20
26.10.2020 04:00:00 8,6 7,2 22 12 - - SSW 999,8 20
26.10.2020 03:00:00 8,5 7,3 18 10 25 14 S 999,7 20
26.10.2020 02:00:00 8,6 7,4 14 8 29 16 SSW 999,8 20
26.10.2020 01:00:00 9,1 7,7 18 10 - - SSW 1000,2 20
26.10.2020 00:00:00 9,4 7,9 14 8 25 14 SSW 1000,2 20
25.10.2020 23:00:00 9,6 7,9 14 8 29 16 SSW 1000,2 20
25.10.2020 22:00:00 10,1 7,5 18 10 - - S 1000,3 20
25.10.2020 21:00:00 10,8 9,1 18 10 32 18 S 1000,3 20
25.10.2020 20:00:00 11,3 8,6 18 10 29 16 SSW 1000,7 20
25.10.2020 19:00:00 10,5 8,4 14 8 - - S 1000,7 20
25.10.2020 18:00:00 11,0 8,6 18 10 32 18 S 1001,0 20
25.10.2020 17:00:00 11,8 9,1 18 10 36 19 S 1000,7 20
25.10.2020 16:00:00 11,8 9,3 22 12 - - S 1000,2 20
25.10.2020 15:00:00 12,1 9,3 22 12 32 18 S 1000,2 20
25.10.2020 14:00:00 12,3 9,6 18 10 32 18 SSW 1000,8 20
25.10.2020 13:00:00 12,3 9,6 22 12 - - SSW 1001,3 20
25.10.2020 12:00:00 12,1 9,8 14 8 29 16 SSW 1001,2 20
25.10.2020 11:00:00 12,1 10,1 18 10 29 16 S 1001,5 20
25.10.2020 10:00:00 12,0 10,1 18 10 - - SSW 1001,2 20
25.10.2020 09:00:00 11,6 9,8 14 8 32 18 SSW 1001,3 20
25.10.2020 08:00:00 11,3 9,5 18 10 40 21 SSW 1001,0 20
25.10.2020 07:00:00 11,3 9,2 22 12 - - SSW 1001,1 20
25.10.2020 06:00:00 10,9 9,4 18 10 32 18 S 1001,1 20
25.10.2020 05:00:00 11,1 9,9 18 10 54 29 SSW 1001,2 20
25.10.2020 04:00:00 14,5 10,5 32 18 - - SSW 1000,1 17
25.10.2020 03:00:00 14,7 10,3 36 19 58 31 SSW 1000,5 20
25.10.2020 02:00:00 14,8 10,4 36 19 61 33 S 1001,2 20
25.10.2020 01:00:00 - - - - - - - - -
25.10.2020 00:00:00 15,5 11,4 32 18 65 35 SSW 1002,2 20
24.10.2020 23:00:00 15,4 11,7 36 19 58 31 S 1003,2 20
24.10.2020 22:00:00 15,7 11,8 36 19 - - S 1003,7 20
24.10.2020 21:00:00 15,6 12,1 40 21 58 31 S 1004,0 20
24.10.2020 20:00:00 15,6 12,5 32 18 54 29 S 1004,7 20
24.10.2020 19:00:00 15,1 12,8 29 16 - - S 1005,7 20
24.10.2020 18:00:00 15,0 12,3 25 14 47 25 S 1006,2 20
24.10.2020 17:00:00 15,1 12,4 25 14 43 23 S 1007,0 20
24.10.2020 16:00:00 15,3 12,6 25 14 - - S 1008,0 20
24.10.2020 15:00:00 15,8 12,6 25 14 43 23 SSW 1008,3 20
24.10.2020 14:00:00 15,3 12,6 25 14 54 29 SSW 1009,0 20
24.10.2020 13:00:00 14,3 12,3 22 12 - - SSW 1009,7 20
24.10.2020 12:00:00 14,7 11,5 25 14 47 25 SSW 1010,5 20
24.10.2020 11:00:00 14,1 11,0 25 14 43 23 SSW 1010,7 20
24.10.2020 10:00:00 12,8 11,1 29 16 - - SSW 1011,1 20
24.10.2020 09:00:00 12,0 11,2 22 12 36 19 S 1011,0 13
24.10.2020 08:00:00 12,1 10,8 22 12 36 19 SSW 1010,8 18
24.10.2020 07:00:00 12,0 10,7 22 12 - - SSW 1010,8 20
24.10.2020 06:00:00 12,0 10,4 22 12 36 19 SSW 1011,1 19
24.10.2020 05:00:00 11,8 10,1 14 8 32 18 SSW 1011,6 20
24.10.2020 04:00:00 12,5 10,1 14 8 - - SSW 1011,7 20
24.10.2020 03:00:00 12,1 9,9 11 6 25 14 SSW 1012,2 20
24.10.2020 02:00:00 12,1 10,2 14 8 32 18 SSW 1012,5 20
24.10.2020 01:00:00 12,1 10,3 14 8 - - SSW 1012,2 20
24.10.2020 00:00:00 12,2 10,5 14 8 25 14 SSW 1012,1 19
23.10.2020 23:00:00 12,0 10,6 14 8 18 10 SSW 1012,5 20
23.10.2020 22:00:00 12,5 10,7 7 4 - - SSW 1012,2 20
23.10.2020 21:00:00 13,8 10,8 14 8 22 12 WSW 1011,3 20
23.10.2020 20:00:00 14,3 10,4 11 6 18 10 SW 1010,8 20
23.10.2020 19:00:00 14,2 9,9 11 6 - - SW 1010,7 20
23.10.2020 18:00:00 14,9 10,1 11 6 22 12 SSW 1010,2 20
23.10.2020 17:00:00 15,8 10,7 11 6 29 16 SW 1010,1 20
23.10.2020 16:00:00 16,3 11,9 14 8 - - SSW 1009,7 20
23.10.2020 15:00:00 16,5 11,9 18 10 29 16 SW 1009,7 20
23.10.2020 14:00:00 16,6 12,7 18 10 29 16 SSW 1009,7 19
23.10.2020 13:00:00 16,0 13,3 14 8 - - SSW 1010,0 15
23.10.2020 12:00:00 14,6 13,5 14 8 22 12 SSW 1010,3 9
23.10.2020 11:00:00 13,3 13,3 14 8 22 12 SSW 1010,6 2,5
23.10.2020 10:00:00 12,8 12,8 14 8 - - SSW 1010,6 1,8
23.10.2020 09:00:00 12,5 12,5 4 2 14 8 N 1010,5 0,3
23.10.2020 08:00:00 12,1 12,1 7 4 14 8 S 1010,2 0,1
23.10.2020 07:00:00 11,5 11,4 7 4 - - S 1010,1 0,1
23.10.2020 06:00:00 - - - - - - - - -
23.10.2020 05:00:00 - - - - - - - - -
23.10.2020 04:00:00 - - - - - - - - -
23.10.2020 03:00:00 - - - - - - - - -
23.10.2020 02:00:00 - - - - - - - - -
23.10.2020 01:00:00 - - - - - - - - -
23.10.2020 00:00:00 - - - - - - - - -
22.10.2020 23:00:00 - - - - - - - - -
22.10.2020 22:00:00 - - - - - - - - -
22.10.2020 21:00:00 - - - - - - - - -
22.10.2020 20:00:00 13,0 11,2 7 4 11 6 SSW 1012,0 20
22.10.2020 19:00:00 13,2 11,5 7 4 - - SSW 1011,7 19
22.10.2020 18:00:00 14,8 11,7 4 2 18 10 N 1011,5 20
22.10.2020 17:00:00 16,1 12,5 11 6 22 12 SSW 1010,8 19
22.10.2020 16:00:00 16,4 12,3 11 6 - - SW 1010,8 20
22.10.2020 15:00:00 16,3 12,6 11 6 22 12 SSW 1010,6 20
22.10.2020 14:00:00 15,8 12,4 11 6 25 14 SW 1010,8 20
22.10.2020 13:00:00 15,5 13,2 11 6 - - SW 1011,2 14
22.10.2020 12:00:00 15,5 12,8 18 10 29 16 SSW 1011,5 20
22.10.2020 11:00:00 15,7 11,7 18 10 29 16 SSW 1011,3 19
22.10.2020 10:00:00 14,5 11,5 11 6 - - SSW 1011,6 20
22.10.2020 09:00:00 13,5 11,2 14 8 22 12 SSW 1011,2 20
22.10.2020 08:00:00 12,2 10,5 14 8 25 14 SSW 1010,5 20
22.10.2020 07:00:00 11,6 10,0 11 6 - - S 1009,7 20
22.10.2020 06:00:00 12,5 10,5 14 8 22 12 SSW 1009,5 20
22.10.2020 05:00:00 12,8 11,0 14 8 29 16 SSW 1009,2 20
22.10.2020 04:00:00 - - - - - - - - -
22.10.2020 03:00:00 - - - - - - - - -
22.10.2020 02:00:00 - - - - - - - - -
22.10.2020 01:00:00 - - - - - - - - -
22.10.2020 00:00:00 - - - - - - - - -
21.10.2020 23:00:00 - - - - - - - - -
21.10.2020 22:00:00 - - - - - - - - -
21.10.2020 21:00:00 - - - - - - - - -
21.10.2020 20:00:00 - - - - - - - - -
21.10.2020 19:00:00 17,9 11,6 25 14 - - SW 1003,2 20
21.10.2020 18:00:00 18,6 11,8 32 18 72 39 SW 1001,5 20
21.10.2020 17:00:00 19,2 12,0 32 18 61 33 SSW 1000,2 20
21.10.2020 16:00:00 19,8 11,7 40 21 - - SSW 999,1 20
21.10.2020 15:00:00 20,2 12,7 40 21 79 43 SSW 998,2 20
21.10.2020 14:00:00 20,5 12,9 47 25 90 49 SSW 997,2 20
21.10.2020 13:00:00 19,7 12,6 43 23 - - SSW 996,8 20
21.10.2020 12:00:00 19,5 12,3 40 21 68 37 S 996,8 19
21.10.2020 11:00:00 17,5 11,3 36 19 54 29 S 997,1 20
21.10.2020 10:00:00 14,1 11,6 18 10 - - SSE 998,4 20
21.10.2020 09:00:00 13,1 11,8 18 10 36 19 SSE 999,6 19
21.10.2020 08:00:00 12,8 11,6 22 12 36 19 S 1000,2 8
21.10.2020 07:00:00 12,6 11,7 18 10 - - S 1000,6 9
21.10.2020 06:00:00 12,6 11,8 11 6 29 16 SSE 1001,2 13
21.10.2020 05:00:00 13,0 12,1 14 8 29 16 SSE 1001,8 9
21.10.2020 04:00:00 13,1 12,4 11 6 - - S 1002,5 6
21.10.2020 03:00:00 13,5 12,3 11 6 22 12 S 1003,2 16
21.10.2020 02:00:00 13,8 12,4 14 8 22 12 S 1004,2 19
21.10.2020 01:00:00 14,1 12,4 11 6 - - S 1004,6 20
21.10.2020 00:00:00 14,3 12,6 14 8 29 16 S 1004,8 20
20.10.2020 23:00:00 14,5 12,8 14 8 29 16 S 1005,5 20
20.10.2020 22:00:00 14,6 12,8 18 10 - - S 1006,0 20

tt = Température de l'air
td = dewpoint
ff = Vitesse du vent
fx = gusts
dd = Direction du vent
ppp = reduced air pressure
vv = visibility

stations d'obs. à proximité